"Pseudo-MPEC" for CCDD9W2

Created 2024 Nov 30 20:31:08 UT using Find_Orb

Click here for an explanation of pseudo-MPECs

 
 Astrometry: 
     CCDD9W2 1C2024 11 26.47824 09 15 26.14 +44 02 42.7    ~BUI2       VNEOCPG96
     CCDD9W2 1C2024 11 26.48457 09 14 57.19 +44 03 56.6    ~BUI2 19.8 GVNEOCPG96
     CCDD9W2*1C2024 11 29.32429007 22 50.884+45 18 47.92   ~BT8V 20.75GVNEOCPG96
     CCDD9W2 1C2024 11 29.32458907 22 50.390+45 18 47.77   ~BT8V 20.49GVNEOCPG96
     CCDD9W2 1C2024 11 29.32611907 22 48.263+45 18 46.80   ~BT8V 20.95GVNEOCPG96
     CCDD9W2 1C2024 11 29.32769307 22 46.031+45 18 45.72   ~BT8V 20.56GVNEOCPG96
     CCDD9W2 KB2024 11 29.37060 07 21 36.989+45 17 40.67   ~BTB2 20.5 rZNEOCPH36
     CCDD9W2 mC2024 11 29.37198907 21 43.412+45 18 10.22   ~BT9H 20.92GVNEOCPI52
     CCDD9W2 mC2024 11 29.37302807 21 41.918+45 18 09.22   ~BT9H 20.72GVNEOCPI52
     CCDD9W2 mC2024 11 29.37354407 21 41.238+45 18 08.86   ~BT9H       VNEOCPI52
     CCDD9W2 KB2024 11 29.38314 07 21 19.363+45 17 22.24   ~BTB2 20.2 rZNEOCPH36
     CCDD9W2 KB2024 11 29.41280 07 20 37.838+45 16 35.94   ~BTB2x20.5 rZNEOCPH36
     CCDD9W2 1C2024 11 30.01448007 09 59.008+44 59 23.60   ~BU1H 20.9 GXNEOCP033
     CCDD9W2 1C2024 11 30.01583007 09 57.528+44 59 22.00   ~BU1H 20.9 GXNEOCP033
     CCDD9W2 1C2024 11 30.01875007 09 54.270+44 59 18.40   ~BU1H 20.8 GXNEOCP033
     CCDD9W2 KC2024 11 30.13107407 07 50.08 +44 56 48.9    ~BU3l 20.9 GVNEOCPL01
     CCDD9W2 KC2024 11 30.13317907 07 47.82 +44 56 44.8    ~BU3l 20.9 GVNEOCPL01
     CCDD9W2 KC2024 11 30.13553007 07 45.29 +44 56 40.2    ~BU3l 21.0 GVNEOCPL01

Station data:
(033) Karl Schwarzschild Observatory, Tautenburg  (N50.980139 E11.711240)
   Germany.  Observer B. Stecklum. 1.34-m f/3 Schmidt + CCD.
(G96) Mt. Lemmon Survey  (N32.442729 W110.788720)  US/Arizona.  Observer E.
   J. Christensen. 1.5-m reflector + 10K CCD.
(H36) Sandlot Observatory, Scranton  (N38.797718 W95.706550)  US/Kansas.
   Observer G. Hug. 0.56-m reflector + CCD.
(I52) Steward Observatory, Mt. Lemmon Station  (N32.442570 W110.788920)
   US/Arizona.  Observers T. A. Pruyne, B. M. Africano, E. J. Christensen, G.
   A. Farneth, D. C. Fuls, A. R. Gibbs, A. D. Grauer, H. Gröller, J. A.
   Johnson, R. A. Kowalski, S. M. Larson, G. J. Leonard, D. Rankin, R. L.
   Seaman, F. C. Shelly, K. W. Wierzchoś. 1.0-m prime focus + CCD.
(L01) Višnjan Observatory, Tičan  (N45.290897 E13.749300)  Croatia.
   Observers K. Korlević, D. Pujagic, V. Dobos. Measurers D. Pujagic, K.
   Korlević. 1.0-m f/2.9 reflector + CCD.

Orbital elements:  CCDD9W2
   Perihelion 2024 Oct 16.62851 +/- 0.00597 TT = 15:05:03 (JD 2460600.12851)
Epoch 2024 Nov 30.0 TT = JDT 2460644.5   Earth MOID: 0.0035   Ma: 0.0121
M  29.33211676 +/- 0.033            (J2000 ecliptic)             AutoNEOCP
n   0.66105778 +/- 0.00066          Peri.  314.85475 +/- 0.008
a   1.30509793 +/- 0.000867         Node    60.10700 +/- 0.00043
e   0.3031858 +/- 0.000572          Incl.    3.54785 +/- 0.0056
P   1.491/544.571d         H 27.55  G  0.15   U  7.8
q 0.90941070 +/- 0.000141    Q 1.70078516 +/- 0.00188
17 of 18 observations 2024 Nov. 26-30; mean residual 0".34
Residuals in arcseconds: 
241126 G96  1.1-  .41-    241129 H36  .07+  .07-    241130 033  .05+  .10-    
241126 G96  1.1+  .37+    241129 I52  .03-  .13+    241130 033  .19+  .05-    
241129 G96  .39+  .08+    241129 I52  .29-  .20+    241130 033  .12-  .03-    
241129 G96  .38-  .10+    241129 I52  .24+  .37+    241130 L01  .04-  .30-    
241129 G96  .05-  .02+    241129 H36  .10+  .19-    241130 L01  .02+  .09-    
241129 G96  .18-  .12-    241129 H36( 1.8-  2.6+)   241130 L01  .01-  .16+    

Ephemerides (geocentric):
Date (UTC) HH   RA             Dec           delta  r     elong  mag " sig PA
---- --------  ------------   ------------  ------ ------ -----  --- --------
2024 11 30 21  06 57 33.371   +44 37 23.03  .02798 1.0083 141.8 21.3 .326  73
2024 11 30 22  06 57 02.266   +44 36 18.03  .02814 1.0084 142.0 21.3 .339  73
2024 11 30 23  06 56 31.532   +44 35 13.21  .02831 1.0086 142.1 21.3 .352  73
2024 12 01 00  06 56 01.160   +44 34 08.56  .02848 1.0088 142.2 21.3 .366  73
2024 12 01 01  06 55 31.147   +44 33 04.11  .02864 1.0089 142.3 21.3 .379  73
2024 12 01 02  06 55 01.484   +44 31 59.85  .02881 1.0091 142.5 21.4 .392  73
2024 12 01 03  06 54 32.166   +44 30 55.80  .02898 1.0093 142.6 21.4 .404  73
2024 12 01 04  06 54 03.187   +44 29 51.94  .02914 1.0094 142.7 21.4 .417  73
2024 12 01 05  06 53 34.541   +44 28 48.29  .02931 1.0096 142.8 21.4 .430  73
2024 12 01 06  06 53 06.223   +44 27 44.85  .02948 1.0097 142.9 21.4 .442  73
2024 12 01 07  06 52 38.227   +44 26 41.63  .02964 1.0099 143.1 21.4 .455  72
2024 12 01 08  06 52 10.548   +44 25 38.63  .02981 1.0101 143.2 21.4 .467  72
2024 12 01 09  06 51 43.179   +44 24 35.84  .02998 1.0102 143.3 21.4 .479  72
2024 12 01 10  06 51 16.117   +44 23 33.28  .03014 1.0104 143.4 21.4 .491  72
2024 12 01 11  06 50 49.355   +44 22 30.95  .03031 1.0106 143.5 21.4 .503  72
2024 12 01 12  06 50 22.890   +44 21 28.84  .03048 1.0107 143.6 21.4 .515  72
2024 12 01 13  06 49 56.715   +44 20 26.97  .03065 1.0109 143.7 21.5 .527  72
2024 12 01 14  06 49 30.827   +44 19 25.33  .03081 1.0111 143.8 21.5 .539  72
2024 12 01 15  06 49 05.221   +44 18 23.93  .03098 1.0112 143.9 21.5 .550  72
2024 12 01 16  06 48 39.891   +44 17 22.76  .03115 1.0114 144.1 21.5 .562  72
2024 12 01 17  06 48 14.834   +44 16 21.83  .03132 1.0116 144.2 21.5 .573  72
2024 12 01 18  06 47 50.045   +44 15 21.14  .03148 1.0117 144.3 21.5 .584  72
2024 12 01 19  06 47 25.520   +44 14 20.69  .03165 1.0119 144.4 21.5 .596  72
2024 12 01 20  06 47 01.254   +44 13 20.48  .03182 1.0120 144.5 21.5 .607  72
2024 12 01 21  06 46 37.244   +44 12 20.51  .03199 1.0122 144.6 21.5 .618  71
2024 12 01 22  06 46 13.485   +44 11 20.79  .03216 1.0124 144.7 21.5 .629  71
2024 12 01 23  06 45 49.974   +44 10 21.31  .03232 1.0125 144.8 21.5 .639  71
2024 12 02 00  06 45 26.707   +44 09 22.08  .03249 1.0127 144.9 21.6 .650  71
2024 12 02 01  06 45 03.679   +44 08 23.09  .03266 1.0129 145.0 21.6 .661  71
2024 12 02 02  06 44 40.887   +44 07 24.35  .03283 1.0130 145.1 21.6 .671  71
2024 12 02 03  06 44 18.328   +44 06 25.86  .03300 1.0132 145.2 21.6 .682  71
2024 12 02 04  06 43 55.997   +44 05 27.61  .03317 1.0134 145.3 21.6 .692  71
2024 12 02 05  06 43 33.892   +44 04 29.60  .03334 1.0135 145.4 21.6 .702  71
2024 12 02 06  06 43 12.009   +44 03 31.84  .03350 1.0137 145.5 21.6 .712  71
2024 12 02 07  06 42 50.344   +44 02 34.33  .03367 1.0139 145.6 21.6 .722  71
2024 12 02 08  06 42 28.895   +44 01 37.06  .03384 1.0140 145.7 21.6 .732  71
2024 12 02 09  06 42 07.657   +44 00 40.04  .03401 1.0142 145.8 21.6 .742  71
2024 12 02 10  06 41 46.628   +43 59 43.26  .03418 1.0144 145.9 21.6 .752  71
2024 12 02 11  06 41 25.805   +43 58 46.73  .03435 1.0145 146.0 21.6 .762  71
2024 12 02 12  06 41 05.185   +43 57 50.44  .03452 1.0147 146.1 21.7 .771  71
2024 12 02 13  06 40 44.764   +43 56 54.39  .03469 1.0149 146.2 21.7 .781  71
2024 12 02 14  06 40 24.540   +43 55 58.59  .03485 1.0150 146.3 21.7 .790  71
2024 12 02 15  06 40 04.510   +43 55 03.03  .03502 1.0152 146.3 21.7 .800  71
2024 12 02 16  06 39 44.671   +43 54 07.71  .03519 1.0154 146.4 21.7 .809  70
2024 12 02 17  06 39 25.020   +43 53 12.63  .03536 1.0155 146.5 21.7 .818  70
2024 12 02 18  06 39 05.554   +43 52 17.79  .03553 1.0157 146.6 21.7 .827  70
2024 12 02 19  06 38 46.272   +43 51 23.19  .03570 1.0159 146.7 21.7 .836  70
2024 12 02 20  06 38 27.169   +43 50 28.83  .03587 1.0160 146.8 21.7 .845  70